Temp
47 40 38 42 45 45 44 44 44 44 48 48 47 47 52 53 53 52 52 53 53 55 56 55 55 56 55 56 56 57 57 56 56 56 57 57 57 56 56 56 56 56 57 56
43 38 44 47 46 46 45 43 43 44 47 47 45 47 51 52 52 53 53 52 52 53 53 52 53 53 54 55 56 56 57 56 55 55 55 55 55 55 55 55 55 55 55 55
39 43 46 46 44 44 41 42 41 43 44 45 44 47 49 49 50 51 52 53 52 53 52 51 51 52 53 53 54 55 55 55 55 54 53 53 53 53 54 54 54 53 54 53
41 45 44 43 42 42 41 42 44 43 42 39 42 40 45 45 47 48 51 50 50 50 50 50 51 51 52 53 52 54 54 54 54 54 54 54 53 53 52 52 52 53 53 53
38 40 41 42 40 42 41 44 42 41 39 38 40 36 45 43 46 48 50 49 47 48 50 50 50 52 52 51 52 53 53 53 53 53 53 52 51 51 51 51 51 52 52 52
39 44 41 40 42 42 43 42 39 36 36 30 33 34 40 44 45 46 48 49 47 47 49 50 51 51 51 50 51 51 52 52 52 52 51 52 51 50 50 50 51 51 51 52
38 38 41 43 41 43 41 36 28 29 27 30 32 32 42 46 47 48 48 49 47 47 48 49 50 50 50 50 50 50 51 51 51 51 51 51 51 50 50 50 50 50 51 51
30 29 38 42 39 39 38 38 29 27 26 31 33 33 40 44 46 47 47 48 47 47 48 49 49 49 50 50 50 50 50 50 51 51 51 50 50 50 50 50 50 50 50 51
32 32 39 40 40 40 39 34 38 29 28 29 31 38 44 44 44 45 45 46 46 47 47 49 50 49 49 49 50 49 49 50 50 50 50 50 50 49 50 50 50 50 50 50
36 31 36 39 41 40 38 40 35 31 29 27 30 32 36 39 42 44 44 44 44 44 44 45 46 47 49 49 49 49 49 50 51 50 50 50 50 49 49 49 49 49 50 49
37 35 32 36 36 36 36 34 33 34 33 32 30 33 38 38 42 44 42 42 42 42 42 42 43 44 44 46 47 48 48 49 49 49 49 49 49 49 49 49 49 49 49 49
36 33 26 32 35 37 35 34 35 32 31 27 29 33 40 40 41 42 40 40 40 40 40 41 41 42 43 43 45 46 47 48 48 49 49 48 48 48 48 48 48 48 48 48
37 34 24 31 33 34 34 35 35 32 32 27 30 37 38 37 39 39 38 38 39 39 40 40 41 41 42 43 43 44 45 46 47 47 47 47 46 47 47 47 47 47 47 47
42 32 33 30 33 34 32 33 34 35 27 30 31 35 36 37 38 37 37 37 38 39 39 39 39 40 41 42 42 43 44 45 45 45 45 45 45 45 45 45 46 46 46 45
38 33 27 31 34 34 34 35 32 30 32 34 32 35 36 40 38 37 37 36 37 37 38 39 38 39 39 41 42 43 43 44 45 44 44 43 44 45 45 46 46 46 46 47
34 32 30 30 32 33 33 34 33 32 33 32 32 36 41 37 37 36 36 37 36 37 38 38 39 39 39 39 40 41 42 42 44 43 43 43 44 44 44 44 45 45 45 45
32 30 30 29 30 32 31 33 33 33 32 36 33 38 38 36 37 36 35 37 37 37 38 39 39 39 40 40 41 41 41 42 42 42 42 42 42 42 42 42 42 41 42 42
31 31 31 26 30 23 35 36 36 36 36 36 37 36 36 36 36 36 38 37 37 38 38 39 39 40 41 40 41 41 41 41 41 41 41 41 41 40 40 39 39 39 40 40
33 31 29 27 24 31 32 34 34 35 33 35 35 34 34 35 36 36 38 39 38 38 39 40 40 41 40 41 40 40 40 39 39 40 40 40 40 39 39 38 38 39 38 38
33 32 30 26 24 25 32 35 38 37 30 34 36 34 33 35 34 35 38 38 39 39 40 40 40 42 41 41 39 37 38 37 37 39 40 40 39 38 37 37 37 38 37 37
27 27 26 26 23 28 35 37 38 30 33 36 36 35 34 35 36 37 38 39 39 40 41 43 42 40 39 38 36 36 35 35 38 38 38 38 38 37 37 37 37 36 36 35
28 25 24 25 22 23 36 35 33 36 33 35 35 35 35 35 36 36 38 38 40 41 41 40 38 37 37 37 35 34 33 37 37 36 36 36 36 37 39 36 36 35 33 32
30 34 31 32 32 37 35 35 36 36 37 36 36 37 38 37 37 37 37 40 39 37 36 37 35 35 35 35 34 33 36 35 35 34 34 35 36 36 37 35 34 33 34 31
32 35 33 34 35 36 36 35 36 37 37 37 39 39 38 36 38 39 38 37 35 35 35 34 33 32 32 33 33 33 34 35 33 32 33 34 34 34 35 34 34 33 33 32
34 35 33 31 33 33 35 37 38 37 38 38 39 39 40 39 37 35 34 34 34 33 33 32 31 30 31 32 32 33 33 33 32 33 33 33 34 34 33 34 34 34 35 34
34 35 31 30 37 37 37 38 39 37 38 39 39 38 38 36 35 34 32 32 31 31 31 30 30 31 31 32 32 33 33 32 31 31 32 33 33 33 34 33 33 37 37 38
MSLP
1017.76 1018.34 1018.19 1017.82 1017.44 1017.11 1017.11 1017.24 1017.45 1017.47 1017.33 1017.31 1017.27 1017.36 1016.82 1017.37 1017.79 1018.12 1018.47 1018.74 1019.00 1019.27 1019.59 1019.92 1020.14 1020.39 1020.86 1021.40 1021.71 1022.00 1022.27 1022.54 1022.84 1023.13 1023.28 1023.39 1023.43 1023.75 1023.81 1023.85 1023.84 1023.63 1023.52 1023.45
1018.29 1018.38 1017.87 1017.59 1017.38 1017.24 1017.21 1017.45 1017.88 1017.95 1017.80 1017.87 1017.91 1017.40 1016.86 1016.90 1017.08 1017.39 1017.99 1018.58 1018.93 1019.40 1019.74 1020.19 1020.42 1020.69 1021.04 1021.35 1021.72 1022.00 1022.24 1022.59 1022.74 1022.89 1023.17 1023.40 1023.58 1023.81 1023.79 1023.85 1023.76 1023.66 1023.58 1023.53
1018.35 1018.44 1017.91 1017.64 1017.65 1017.59 1017.78 1017.75 1018.08 1018.19 1018.42 1018.60 1018.44 1017.65 1016.87 1016.83 1017.01 1017.36 1017.85 1018.27 1018.94 1019.29 1019.79 1020.27 1020.65 1020.88 1021.27 1021.52 1021.68 1022.01 1022.26 1022.39 1022.67 1022.90 1023.22 1023.51 1023.70 1023.90 1023.93 1023.89 1023.78 1023.80 1023.70 1023.64
1018.80 1018.55 1018.16 1017.93 1018.01 1018.00 1018.20 1018.14 1018.28 1018.78 1019.13 1019.58 1019.45 1018.61 1017.39 1017.11 1017.18 1017.41 1017.94 1018.49 1018.91 1019.44 1019.92 1020.39 1020.74 1021.08 1021.36 1021.57 1021.84 1022.01 1022.31 1022.55 1022.71 1022.88 1023.13 1023.29 1023.44 1023.65 1023.85 1023.91 1023.91 1023.82 1023.82 1023.76
1019.46 1019.10 1018.70 1018.56 1018.61 1018.40 1018.82 1018.71 1019.14 1019.59 1020.14 1020.35 1020.42 1020.07 1017.59 1017.43 1017.22 1017.38 1017.80 1018.44 1018.93 1019.44 1019.80 1020.29 1020.72 1020.94 1021.40 1021.68 1021.98 1022.25 1022.42 1022.64 1022.82 1022.99 1023.17 1023.38 1023.48 1023.66 1023.78 1023.90 1023.98 1024.06 1024.07 1024.11
1019.62 1019.48 1019.29 1019.24 1019.15 1018.89 1019.20 1019.48 1020.18 1020.80 1021.14 1021.69 1021.39 1020.95 1018.51 1017.75 1017.35 1017.54 1017.88 1018.41 1019.04 1019.67 1020.07 1020.53 1020.83 1021.20 1021.58 1021.90 1022.16 1022.44 1022.57 1022.72 1022.91 1023.09 1023.27 1023.37 1023.46 1023.66 1023.87 1024.02 1024.06 1024.09 1024.11 1024.12
1020.09 1020.00 1019.71 1019.56 1019.56 1019.52 1019.62 1020.20 1021.40 1022.09 1022.24 1022.24 1022.04 1021.59 1018.36 1017.45 1017.48 1017.76 1018.21 1018.62 1019.32 1019.93 1020.43 1020.79 1021.10 1021.40 1021.65 1021.98 1022.24 1022.40 1022.55 1022.63 1022.89 1023.13 1023.30 1023.40 1023.51 1023.67 1023.75 1023.83 1023.90 1023.91 1023.92 1023.92
1020.51 1020.61 1020.24 1020.09 1020.06 1019.74 1020.06 1020.26 1020.90 1021.77 1022.63 1022.35 1022.22 1020.66 1017.66 1017.49 1017.66 1018.03 1018.54 1018.93 1019.71 1020.36 1020.75 1021.05 1021.30 1021.49 1021.69 1021.92 1022.08 1022.21 1022.39 1022.64 1022.91 1023.10 1023.19 1023.24 1023.35 1023.48 1023.54 1023.62 1023.77 1023.86 1023.93 1023.96
1020.13 1020.46 1020.48 1020.36 1020.23 1020.35 1020.29 1020.51 1020.74 1021.58 1022.82 1022.31 1021.14 1019.64 1017.81 1017.79 1018.09 1018.57 1019.12 1019.70 1020.33 1020.76 1021.06 1021.26 1021.45 1021.60 1021.70 1021.89 1022.04 1022.15 1022.28 1022.40 1022.59 1022.73 1022.92 1023.18 1023.36 1023.44 1023.51 1023.65 1023.75 1023.83 1023.90 1023.88
1019.57 1020.41 1020.80 1020.60 1020.52 1020.51 1020.40 1020.58 1020.92 1021.40 1022.23 1022.13 1021.05 1020.14 1018.40 1018.32 1018.59 1019.09 1019.70 1020.28 1020.82 1021.24 1021.57 1021.74 1021.84 1021.83 1021.79 1021.83 1021.84 1021.93 1022.13 1022.26 1022.49 1022.76 1022.99 1023.17 1023.37 1023.56 1023.68 1023.79 1023.85 1023.81 1023.72 1023.68
1019.51 1020.00 1021.29 1021.10 1020.84 1020.65 1020.95 1020.81 1021.20 1021.36 1021.46 1021.46 1021.19 1019.43 1018.29 1018.55 1018.91 1019.45 1020.18 1020.84 1021.43 1021.93 1022.28 1022.44 1022.55 1022.42 1022.32 1022.15 1022.10 1022.14 1022.25 1022.39 1022.55 1022.72 1022.92 1023.12 1023.25 1023.33 1023.40 1023.54 1023.60 1023.62 1023.68 1023.71
1019.64 1020.32 1021.12 1021.08 1020.91 1020.91 1020.83 1020.79 1020.89 1021.43 1022.09 1022.07 1021.45 1019.19 1018.41 1018.92 1019.37 1019.90 1020.80 1021.58 1022.21 1022.71 1023.08 1023.26 1023.24 1023.09 1022.83 1022.71 1022.48 1022.42 1022.44 1022.51 1022.73 1022.93 1023.06 1023.21 1023.39 1023.53 1023.61 1023.69 1023.67 1023.68 1023.71 1023.72
1019.80 1020.33 1020.98 1021.13 1021.31 1021.12 1021.01 1020.89 1021.10 1021.48 1021.65 1021.83 1021.29 1019.30 1019.04 1019.58 1020.17 1020.92 1021.75 1022.51 1022.99 1023.39 1023.58 1023.75 1023.69 1023.62 1023.47 1023.27 1023.15 1023.07 1023.02 1023.03 1023.13 1023.23 1023.35 1023.51 1023.62 1023.67 1023.68 1023.64 1023.55 1023.46 1023.33 1023.30
1019.98 1020.51 1020.59 1020.56 1020.30 1020.34 1020.76 1020.77 1021.08 1021.06 1021.77 1021.10 1020.20 1019.24 1019.49 1020.03 1020.67 1021.51 1022.32 1022.89 1023.32 1023.65 1023.89 1024.02 1024.06 1024.12 1024.06 1023.94 1023.74 1023.55 1023.39 1023.24 1023.20 1023.14 1023.16 1023.26 1023.40 1023.47 1023.48 1023.42 1023.27 1023.12 1023.02 1022.87
1020.34 1020.72 1020.67 1020.33 1020.15 1020.21 1020.33 1020.57 1020.96 1021.17 1020.70 1020.55 1019.83 1019.61 1019.27 1019.65 1020.40 1021.34 1022.20 1023.08 1023.60 1023.98 1024.26 1024.41 1024.54 1024.72 1024.65 1024.52 1024.48 1024.28 1024.10 1024.00 1023.92 1023.85 1023.89 1024.01 1023.97 1023.80 1023.66 1023.55 1023.43 1023.21 1023.04 1022.89
1020.83 1020.88 1020.83 1020.46 1020.08 1020.13 1020.16 1019.93 1020.25 1020.56 1020.46 1020.13 1019.82 1019.40 1019.30 1019.89 1020.61 1021.47 1022.32 1023.19 1023.79 1024.17 1024.50 1024.69 1024.85 1024.93 1024.98 1024.99 1024.96 1024.74 1024.56 1024.49 1024.39 1024.35 1024.33 1024.32 1024.25 1024.17 1023.93 1023.76 1023.58 1023.30 1023.05 1022.81
1021.29 1021.20 1021.33 1020.73 1020.28 1020.00 1019.62 1018.27 1018.69 1019.10 1019.37 1019.48 1019.82 1019.42 1019.57 1020.33 1021.01 1021.73 1022.58 1023.04 1023.50 1023.91 1024.18 1024.33 1024.45 1024.56 1024.60 1024.62 1024.57 1024.59 1024.52 1024.46 1024.32 1024.26 1024.23 1024.14 1024.01 1023.93 1023.81 1023.63 1023.46 1023.26 1022.99 1022.75
1021.62 1021.71 1021.52 1021.25 1020.61 1019.72 1017.89 1017.71 1017.94 1018.51 1018.95 1019.29 1019.56 1019.92 1020.35 1020.76 1021.18 1021.56 1022.06 1022.62 1023.24 1023.56 1023.86 1024.16 1024.39 1024.53 1024.66 1024.76 1024.79 1024.77 1024.73 1024.62 1024.54 1024.40 1024.21 1024.07 1023.84 1023.63 1023.43 1023.28 1023.03 1022.76 1022.51 1022.27
1021.45 1021.80 1021.93 1021.86 1021.24 1019.09 1018.16 1017.97 1018.10 1018.34 1019.22 1019.45 1019.77 1020.46 1020.96 1021.42 1021.71 1022.22 1022.32 1022.55 1022.98 1023.51 1023.92 1024.25 1024.49 1024.62 1024.74 1024.84 1024.89 1024.85 1024.74 1024.59 1024.51 1024.17 1023.87 1023.64 1023.39 1023.15 1022.94 1022.73 1022.49 1022.26 1022.01 1021.65
1021.69 1021.70 1022.03 1022.31 1021.48 1019.69 1018.12 1017.92 1017.90 1018.21 1019.16 1019.65 1019.98 1020.65 1021.12 1021.59 1021.95 1022.09 1022.31 1022.77 1023.22 1023.55 1023.90 1024.18 1024.42 1024.63 1024.77 1024.82 1024.91 1024.87 1024.69 1024.49 1024.35 1023.99 1023.78 1023.51 1023.29 1023.05 1022.59 1022.21 1021.90 1021.59 1021.36 1020.97
1021.98 1022.10 1021.82 1021.65 1021.00 1019.29 1017.89 1017.88 1018.04 1018.90 1019.69 1019.62 1020.15 1020.74 1021.35 1021.79 1022.03 1022.12 1022.59 1023.04 1023.31 1023.58 1023.82 1024.09 1024.32 1024.55 1024.79 1024.90 1025.01 1024.95 1024.66 1024.44 1024.04 1023.75 1023.43 1023.08 1022.66 1022.26 1021.92 1021.55 1021.20 1020.89 1020.67 1020.40
1020.87 1021.30 1021.57 1021.61 1021.04 1019.50 1018.07 1018.29 1018.72 1019.11 1019.52 1019.91 1020.44 1020.92 1021.58 1021.92 1022.22 1022.43 1022.78 1023.26 1023.44 1023.53 1023.74 1024.09 1024.43 1024.62 1024.54 1024.77 1024.91 1024.72 1024.55 1023.88 1023.61 1023.28 1022.85 1022.38 1021.92 1021.60 1021.19 1020.89 1020.37 1020.24 1020.03 1019.73
1020.49 1019.77 1019.93 1020.08 1019.23 1018.67 1018.64 1018.83 1019.09 1019.45 1019.76 1020.23 1020.66 1021.08 1021.47 1022.09 1022.51 1022.88 1023.13 1023.21 1023.56 1023.76 1024.04 1024.32 1024.56 1024.69 1024.48 1024.55 1024.63 1024.51 1023.96 1023.71 1023.22 1022.84 1022.29 1021.83 1021.36 1020.88 1020.36 1020.08 1019.74 1019.47 1019.11 1018.83
1019.43 1019.22 1019.38 1019.33 1018.59 1018.66 1018.84 1019.25 1019.50 1019.73 1019.99 1020.29 1020.59 1020.97 1021.39 1022.02 1022.45 1022.80 1023.16 1023.47 1023.78 1024.06 1024.37 1024.62 1024.86 1024.99 1024.80 1024.44 1024.25 1024.06 1023.65 1023.31 1022.94 1022.34 1021.76 1021.20 1020.75 1020.05 1019.47 1019.25 1018.98 1018.59 1018.12 1017.71
1018.98 1019.23 1019.27 1019.23 1018.95 1019.10 1019.15 1019.29 1019.42 1019.72 1019.99 1020.38 1020.80 1021.09 1021.43 1021.95 1022.62 1023.07 1023.66 1024.10 1024.39 1024.67 1024.87 1024.88 1025.04 1024.83 1024.41 1024.14 1023.90 1023.56 1023.25 1022.92 1022.45 1021.83 1021.20 1020.59 1020.09 1019.48 1018.86 1018.39 1018.10 1017.67 1017.06 1016.87
1018.34 1018.06 1018.32 1018.25 1018.22 1018.51 1018.77 1018.89 1019.25 1019.85 1020.29 1020.69 1021.07 1021.67 1022.11 1022.49 1023.09 1023.55 1024.06 1024.30 1024.54 1024.81 1024.73 1024.59 1024.51 1024.37 1024.06 1023.67 1023.21 1022.89 1022.69 1022.43 1022.08 1021.43 1020.78 1020.23 1019.59 1018.89 1018.38 1017.74 1016.98 1016.77 1016.20 1015.71
Wind_Speed
2 5 4 7 5 5 6 6 5 1 2 2 4 5 12 4 3 5 6 6 6 7 2 2 3 6 8 7 8 7 6 4 3 1 2 2 2 2 3 3 5 5 5 5
5 3 3 3 4 5 4 7 3 2 2 2 3 10 10 4 5 7 8 8 8 5 4 3 5 5 6 8 7 6 5 4 3 2 1 1 2 2 2 2 3 4 4 4
6 2 1 2 3 5 3 6 4 3 2 3 4 7 5 2 1 2 2 3 4 9 8 6 7 6 6 7 7 6 6 5 3 4 3 2 2 2 2 1 1 3 3 4
4 4 2 3 3 1 4 1 5 6 4 2 3 5 5 3 5 2 3 5 6 7 5 5 7 7 7 6 5 5 4 4 3 4 3 3 2 2 1 1 1 0 1 3
1 3 3 3 1 2 3 2 4 3 5 3 3 4 7 3 2 2 4 5 6 6 7 8 7 6 4 5 5 4 4 3 3 3 3 3 3 2 2 1 1 0 1 3
2 1 3 1 2 2 6 6 7 5 3 3 2 4 7 3 2 3 2 2 4 5 5 5 5 5 4 4 4 3 4 3 3 3 3 4 4 4 2 2 1 0 0 1
4 4 3 2 4 2 4 6 4 4 4 5 1 2 10 4 4 2 3 3 4 5 5 5 6 5 4 4 4 3 4 4 4 4 3 3 3 4 3 3 2 2 1 1
5 4 3 4 1 4 1 4 7 7 4 3 1 6 7 5 2 1 2 3 5 5 3 3 3 3 4 4 4 4 4 4 4 4 4 4 4 3 3 3 3 2 2 1
5 1 3 2 2 1 4 2 3 8 3 2 3 7 6 3 3 1 4 5 4 4 3 2 1 2 3 4 5 5 5 5 5 5 4 3 3 4 3 4 3 2 2 2
4 4 1 2 1 3 1 4 4 3 4 4 4 5 7 2 5 3 3 6 5 4 5 4 3 3 3 4 4 4 5 5 4 3 3 2 3 3 2 2 3 3 4 4
5 3 3 1 4 5 2 1 4 3 2 5 1 8 6 6 4 6 5 5 5 5 5 6 6 6 5 4 3 3 3 3 3 2 1 1 1 2 3 3 3 3 3 4
1 5 3 3 1 1 1 2 3 5 5 2 2 9 2 3 2 6 6 5 5 6 6 6 7 7 8 8 6 4 3 2 2 1 1 2 2 2 3 3 4 4 4 4
2 0 3 6 3 2 4 4 4 4 3 6 6 7 2 0 2 2 5 5 5 5 6 6 8 10 10 10 10 10 8 6 6 5 5 6 6 5 4 4 3 3 4 4
2 2 4 7 2 3 4 4 4 4 4 6 8 4 2 4 5 5 5 5 5 5 6 6 8 8 7 8 8 9 9 8 7 7 7 7 5 4 4 3 4 4 3 4
4 2 2 3 3 2 2 3 7 8 3 6 2 7 2 6 8 7 7 6 6 6 6 5 6 5 6 7 6 6 7 7 7 8 8 7 6 5 5 6 6 6 5 5
1 3 4 3 2 4 5 8 8 7 4 8 4 15 8 3 4 7 8 8 6 5 5 5 4 5 4 4 4 5 6 6 5 6 5 5 5 6 6 7 8 8 8 8
1 5 3 4 3 4 7 8 10 5 2 5 6 4 1 0 1 5 7 8 8 7 6 6 5 4 3 3 2 3 2 2 3 3 3 3 3 3 4 5 6 7 7 7
4 3 1 2 3 1 3 2 4 6 3 6 0 2 2 1 2 4 5 8 8 7 6 5 4 3 2 1 0 2 2 3 3 3 3 4 4 4 5 5 6 6 6 8
2 4 1 2 3 7 3 1 3 5 1 4 3 3 2 4 3 2 4 5 6 5 4 3 3 2 1 1 2 3 4 4 4 6 5 6 5 6 5 6 7 8 8 9
5 4 4 2 3 6 2 2 2 1 0 2 3 5 7 5 3 3 6 5 6 5 4 4 3 1 1 2 2 4 5 6 7 9 9 9 7 8 9 9 9 7 6 10
3 1 5 5 4 9 5 4 2 4 4 3 4 5 6 3 1 2 7 5 5 5 5 3 2 2 4 4 3 5 6 8 10 10 10 10 10 11 10 10 8 8 9 9
7 7 5 3 1 9 3 2 4 2 2 2 2 4 5 4 4 6 6 6 5 3 2 3 2 4 4 3 2 6 7 9 8 9 10 10 10 9 8 10 11 9 9 10
3 5 4 8 5 1 0 3 3 3 3 3 4 3 6 6 4 5 5 4 1 2 1 1 2 5 6 5 4 7 9 7 9 9 11 11 11 10 10 10 10 9 8 8
3 4 3 1 2 3 3 1 2 4 4 4 4 6 6 7 7 5 2 2 1 1 3 3 4 6 8 6 5 7 10 9 9 11 12 11 10 12 11 7 7 8 9 8
5 5 3 4 2 3 3 4 4 5 4 5 4 4 5 6 5 4 3 2 1 2 2 2 5 6 8 6 7 6 8 9 11 12 12 12 10 11 11 10 9 9 10 10
6 7 6 6 6 5 4 4 5 6 5 6 6 4 5 5 6 5 3 1 1 2 2 4 5 6 8 9 10 10 7 8 10 11 10 10 11 11 10 11 11 15 21 22
Wind_Direction
56 83 204 213 190 172 138 122 144 125 1 144 254 269 272 213 206 219 216 207 207 205 179 139 130 140 137 142 145 148 155 154 135 134 150 157 135 100 74 62 53 56 52 39
48 189 210 141 135 131 111 120 124 61 54 119 8 282 258 225 217 195 204 213 205 185 183 158 145 142 152 149 150 159 160 147 166 168 135 97 135 121 120 129 80 64 55 43
148 227 261 163 127 108 44 137 165 138 118 73 329 293 284 35 261 140 179 209 196 198 182 174 163 159 147 156 167 166 166 165 139 129 122 110 107 125 164 124 77 38 46 49
112 297 186 126 101 93 136 155 116 121 93 189 6 270 294 333 298 231 193 210 216 197 174 166 166 162 172 172 164 164 151 150 155 158 165 183 180 164 162 150 171 151 47 54
254 0 73 82 48 332 147 115 103 94 96 94 10 74 271 346 290 298 232 223 213 201 177 170 173 169 178 163 170 169 166 156 136 133 137 140 145 149 161 173 179 12 29 30
62 313 57 100 39 45 153 78 52 57 79 40 343 119 281 234 218 300 309 233 183 173 165 164 167 151 159 166 171 163 167 165 148 152 159 165 170 167 166 178 193 215 330 329
9 340 339 38 76 31 72 67 27 20 15 214 212 60 248 237 224 225 301 234 167 162 161 163 166 176 184 186 187 188 187 201 190 184 181 180 177 179 195 187 199 197 211 217
149 318 6 356 37 190 122 146 152 176 181 235 49 234 254 200 273 29 352 152 136 150 160 168 190 198 206 209 209 211 213 225 204 203 208 197 193 197 203 206 205 221 242 275
145 301 317 40 328 60 184 163 137 105 13 46 222 281 291 257 267 83 61 100 116 119 124 121 57 223 232 231 229 220 219 227 219 216 214 211 209 210 222 225 229 253 266 275
201 97 355 303 315 40 199 149 79 359 146 229 287 279 242 202 203 160 116 121 115 90 65 39 13 334 285 259 256 248 235 238 242 234 230 237 247 254 270 277 268 262 263 256
154 102 272 11 210 186 125 240 50 111 111 163 199 260 206 205 206 179 134 124 112 94 70 46 31 19 12 358 334 292 260 238 246 227 209 220 238 221 216 239 266 276 286 277
191 126 159 200 260 233 210 219 157 128 210 72 117 273 158 220 206 149 150 131 101 85 72 58 47 41 41 35 32 36 35 44 23 30 76 55 31 24 359 331 320 312 296 303
188 251 57 353 354 354 228 196 131 104 91 200 144 257 126 315 130 98 126 110 101 99 84 67 57 51 46 42 42 46 43 47 47 54 57 50 41 31 16 353 329 308 293 289
101 125 179 189 193 127 199 193 190 147 139 174 221 276 227 226 200 161 143 136 122 107 93 83 65 56 52 53 55 56 59 62 73 79 79 71 54 39 21 355 339 315 292 281
129 194 123 266 241 207 243 182 185 205 187 189 254 213 245 229 210 187 164 147 133 114 94 83 80 69 55 53 49 51 52 50 52 58 53 43 33 27 18 10 356 346 331 316
337 211 154 236 175 189 254 232 204 221 225 261 237 274 217 38 97 153 158 147 136 130 122 114 100 88 78 65 55 51 46 43 48 55 47 30 20 8 4 355 347 341 334 328
142 136 119 269 9 318 288 233 190 178 168 179 215 244 120 349 222 160 149 156 161 163 160 151 145 147 143 113 89 78 62 46 53 51 28 11 352 331 318 314 316 311 306 303
131 99 76 268 359 276 256 55 156 180 206 217 344 80 77 140 82 147 164 154 164 169 166 168 171 180 174 155 97 354 357 353 350 329 318 310 304 294 295 303 303 296 296 294
104 124 130 211 221 291 91 325 131 168 67 344 186 138 103 125 98 45 173 166 163 165 163 169 178 188 182 317 356 340 315 302 313 297 293 279 269 276 283 285 284 284 284 286
97 92 131 132 202 235 203 214 221 217 294 226 161 166 167 169 104 233 167 140 134 141 152 163 177 170 296 332 351 329 308 312 303 292 288 286 282 277 272 265 268 271 262 280
131 157 193 184 226 279 217 223 209 153 198 165 172 177 164 174 121 104 124 114 136 151 161 121 83 346 319 329 341 300 292 286 281 284 284 281 270 260 261 273 270 272 275 276
172 154 195 125 178 271 173 116 170 177 113 153 168 156 147 119 104 123 124 125 135 151 65 55 9 309 301 315 296 287 283 282 280 283 285 283 281 276 273 268 279 272 268 272
239 194 186 193 221 320 272 42 83 126 128 172 148 143 148 130 136 144 142 132 108 78 47 19 343 320 305 309 286 281 285 284 290 292 290 288 285 277 274 270 273 273 266 257
250 179 219 127 193 206 175 135 180 179 176 157 153 145 137 141 161 171 160 141 122 19 2 348 328 294 286 284 261 246 286 288 289 290 292 288 282 285 280 265 257 259 265 266
196 135 170 274 247 14 284 223 180 182 154 132 127 135 145 139 147 135 130 115 360 329 313 275 282 284 286 289 284 274 273 283 292 296 296 296 293 289 288 278 273 263 261 256
185 185 171 215 191 160 210 184 173 163 162 151 132 111 85 104 123 112 117 124 301 318 297 311 298 295 306 305 305 306 288 281 289 297 304 300 301 299 293 291 290 274 277 282